Data No.,UTC Date,UTC Time,Latitude,Longitude,Course(deg),Sal(psu)
180,2012/6/29,12:08:00,03-28.8300S,117-00.0000E,86,33.5389
181,2012/6/29,12:09:00,03-28.8200S,117-00.2000E,86,33.543
182,2012/6/29,12:10:00,03-28.8000S,117-00.3900E,86,33.55
183,2012/6/29,12:11:00,03-28.7900S,117-00.5900E,86,33.5523
184,2012/6/29,12:12:00,03-28.7900S,117-00.7800E,88,33.5484
185,2012/6/29,12:13:00,03-28.7800S,117-00.9800E,88,33.5363
186,2012/6/29,12:14:00,03-28.7800S,117-01.1700E,87,33.5259
187,2012/6/29,12:15:00,03-28.7700S,117-01.3700E,86,33.527
188,2012/6/29,12:16:00,03-28.7500S,117-01.5600E,86,33.536
189,2012/6/29,12:17:00,03-28.7400S,117-01.7500E,86,33.5496
190,2012/6/29,12:18:00,03-28.7300S,117-01.9500E,86,33.5566
191,2012/6/29,12:19:00,03-28.7200S,117-02.1500E,87,33.5582
192,2012/6/29,12:20:00,03-28.7100S,117-02.3400E,87,33.5632
193,2012/6/29,12:21:00,03-28.7000S,117-02.5300E,87,33.5671
194,2012/6/29,12:22:00,03-28.6900S,117-02.7300E,87,33.5707
195,2012/6/29,12:23:00,03-28.6800S,117-02.9200E,87,33.5734
196,2012/6/29,12:24:00,03-28.6700S,117-03.1200E,87,33.5753
197,2012/6/29,12:25:00,03-28.6600S,117-03.3100E,85,33.5795
198,2012/6/29,12:26:00,03-28.6600S,117-03.5100E,90,33.5822
199,2012/6/29,12:27:00,03-28.6700S,117-03.7000E,95,33.5844
200,2012/6/29,12:28:00,03-28.6900S,117-03.8900E,99,33.5902
201,2012/6/29,12:29:00,03-28.7400S,117-04.0900E,103,33.5928
202,2012/6/29,12:30:00,03-28.7800S,117-04.2800E,103,33.5935
203,2012/6/29,12:31:00,03-28.8300S,117-04.4600E,104,33.594
204,2012/6/29,12:32:00,03-28.8800S,117-04.6500E,104,33.5978
205,2012/6/29,12:33:00,03-28.9300S,117-04.8300E,105,33.5991
206,2012/6/29,12:34:00,03-28.9800S,117-05.0100E,104,33.6022
207,2012/6/29,12:35:00,03-29.0300S,117-05.2000E,104,33.6067
208,2012/6/29,12:36:00,03-29.0700S,117-05.3800E,104,33.6128
209,2012/6/29,12:37:00,03-29.1200S,117-05.5700E,104,33.6146
210,2012/6/29,12:38:00,03-29.1700S,117-05.7500E,103,33.6161
211,2012/6/29,12:39:00,03-29.2200S,117-05.9400E,104,33.6186
212,2012/6/29,12:40:00,03-29.2500S,117-06.1200E,98,33.6218
213,2012/6/29,12:41:00,03-29.2600S,117-06.3100E,89,33.6254
214,2012/6/29,12:42:00,03-29.2500S,117-06.5000E,86,33.6288
215,2012/6/29,12:43:00,03-29.2400S,117-06.6900E,86,33.6314
216,2012/6/29,12:44:00,03-29.2300S,117-06.8800E,89,33.633
217,2012/6/29,12:45:00,03-29.2400S,117-07.0700E,94,33.6342
218,2012/6/29,12:46:00,03-29.2600S,117-07.2600E,96,33.6341
219,2012/6/29,12:47:00,03-29.2800S,117-07.4400E,95,33.6338
220,2012/6/29,12:48:00,03-29.3000S,117-07.6300E,94,33.6345
221,2012/6/29,12:49:00,03-29.3100S,117-07.8300E,93,33.6359
222,2012/6/29,12:50:00,03-29.3200S,117-08.0100E,91,33.6405
223,2012/6/29,12:51:00,03-29.3100S,117-08.2100E,88,33.6423
224,2012/6/29,12:52:00,03-29.3000S,117-08.4100E,85,33.649
225,2012/6/29,12:53:00,03-29.2700S,117-08.6000E,80,33.6574
226,2012/6/29,12:54:00,03-29.2400S,117-08.7900E,78,33.6707
227,2012/6/29,12:55:00,03-29.2000S,117-08.9800E,78,33.6763
228,2012/6/29,12:56:00,03-29.1600S,117-09.1700E,78,33.6789
229,2012/6/29,12:57:00,03-29.1200S,117-09.3600E,79,33.6784
230,2012/6/29,12:58:00,03-29.0900S,117-09.5500E,79,33.6817
231,2012/6/29,12:59:00,03-29.0500S,117-09.7400E,79,33.6806
232,2012/6/29,13:00:00,03-29.0100S,117-09.9400E,78,33.6815
233,2012/6/29,13:01:00,03-28.9800S,117-10.1300E,78,33.6838
234,2012/6/29,13:02:00,03-28.9400S,117-10.3200E,78,33.689
235,2012/6/29,13:03:00,03-28.9000S,117-10.5100E,78,33.6924
236,2012/6/29,13:04:00,03-28.8600S,117-10.7000E,78,33.6936
237,2012/6/29,13:05:00,03-28.8200S,117-10.8900E,78,33.6961
238,2012/6/29,13:06:00,03-28.7900S,117-11.0800E,79,33.6965
239,2012/6/29,13:07:00,03-28.7500S,117-11.2800E,79,33.6978
240,2012/6/29,13:08:00,03-28.7200S,117-11.4700E,79,33.6992
241,2012/6/29,13:09:00,03-28.6800S,117-11.6600E,79,33.7012
242,2012/6/29,13:10:00,03-28.6400S,117-11.8500E,78,33.7038
243,2012/6/29,13:11:00,03-28.6000S,117-12.0500E,78,33.7061
244,2012/6/29,13:12:00,03-28.5600S,117-12.2400E,78,33.7053
245,2012/6/29,13:13:00,03-28.5300S,117-12.4300E,79,33.703
246,2012/6/29,13:14:00,03-28.4900S,117-12.6200E,79,33.6972
247,2012/6/29,13:15:00,03-28.4500S,117-12.8300E,79,33.6943
248,2012/6/29,13:16:00,03-28.4200S,117-13.0200E,79,33.6916
249,2012/6/29,13:17:00,03-28.3800S,117-13.2100E,79,33.6894
250,2012/6/29,13:18:00,03-28.3400S,117-13.4100E,78,33.6884
251,2012/6/29,13:19:00,03-28.3100S,117-13.6000E,80,33.6909
252,2012/6/29,13:20:00,03-28.2800S,117-13.7900E,81,33.696
253,2012/6/29,13:21:00,03-28.2500S,117-13.9900E,81,33.6993
254,2012/6/29,13:22:00,03-28.2200S,117-14.1800E,81,33.6972
255,2012/6/29,13:23:00,03-28.1900S,117-14.3700E,80,33.6939
256,2012/6/29,13:24:00,03-28.1600S,117-14.5700E,80,33.6905
257,2012/6/29,13:25:00,03-28.1200S,117-14.7600E,79,33.6892
258,2012/6/29,13:26:00,03-28.0900S,117-14.9500E,80,33.6894
259,2012/6/29,13:27:00,03-28.0600S,117-15.1500E,82,33.685
260,2012/6/29,13:28:00,03-28.0400S,117-15.3400E,84,33.685
261,2012/6/29,13:29:00,03-28.0200S,117-15.5300E,84,33.6854
262,2012/6/29,13:30:00,03-28.0100S,117-15.7200E,84,33.6864
263,2012/6/29,13:31:00,03-27.9900S,117-15.9200E,84,33.6879
264,2012/6/29,13:32:00,03-27.9700S,117-16.1100E,84,33.6935
265,2012/6/29,13:33:00,03-27.9400S,117-16.3100E,83,33.6941
266,2012/6/29,13:34:00,03-27.9200S,117-16.5000E,84,33.7009
267,2012/6/29,13:35:00,03-27.9000S,117-16.7000E,84,33.7094
268,2012/6/29,13:36:00,03-27.8800S,117-16.8900E,84,33.7119
269,2012/6/29,13:37:00,03-27.8600S,117-17.0800E,83,33.714
270,2012/6/29,13:38:00,03-27.8400S,117-17.2800E,84,33.7162
271,2012/6/29,13:39:00,03-27.8200S,117-17.4900E,84,33.7141
272,2012/6/29,13:40:00,03-27.8000S,117-17.6800E,84,33.7091
273,2012/6/29,13:41:00,03-27.7800S,117-17.8800E,83,33.7073
274,2012/6/29,13:42:00,03-27.7600S,117-18.0700E,84,33.7087
275,2012/6/29,13:43:00,03-27.7500S,117-18.2700E,86,33.7083
276,2012/6/29,13:44:00,03-27.7400S,117-18.4600E,86,33.7046
277,2012/6/29,13:45:00,03-27.7300S,117-18.6600E,86,33.7005
278,2012/6/29,13:46:00,03-27.7200S,117-18.8500E,86,33.6939
279,2012/6/29,13:47:00,03-27.7000S,117-19.0400E,84,33.6977
280,2012/6/29,13:48:00,03-27.6800S,117-19.2400E,84,33.7069
281,2012/6/29,13:49:00,03-27.6700S,117-19.4300E,85,33.7127
282,2012/6/29,13:50:00,03-27.6500S,117-19.6200E,85,33.7209
283,2012/6/29,13:51:00,03-27.6400S,117-19.8200E,85,33.7319
284,2012/6/29,13:52:00,03-27.6200S,117-20.0100E,85,33.7409
285,2012/6/29,13:53:00,03-27.6100S,117-20.2100E,86,33.7471
286,2012/6/29,13:54:00,03-27.6000S,117-20.4000E,86,33.7479
287,2012/6/29,13:55:00,03-27.5800S,117-20.5900E,85,33.7488
288,2012/6/29,13:56:00,03-27.5700S,117-20.7900E,87,33.7493
289,2012/6/29,13:57:00,03-27.5600S,117-20.9900E,88,33.7502
290,2012/6/29,13:58:00,03-27.5600S,117-21.1800E,88,33.7487
291,2012/6/29,13:59:00,03-27.5500S,117-21.3700E,88,33.7497
292,2012/6/29,14:00:00,03-27.5500S,117-21.5700E,88,33.7508
293,2012/6/29,14:01:00,03-27.5400S,117-21.7700E,88,33.7512
294,2012/6/29,14:02:00,03-27.5300S,117-21.9600E,88,33.7477
295,2012/6/29,14:03:00,03-27.5300S,117-22.1600E,88,33.7454
296,2012/6/29,14:04:00,03-27.5200S,117-22.3600E,87,33.7441
297,2012/6/29,14:05:00,03-27.5100S,117-22.5500E,87,33.7427
298,2012/6/29,14:06:00,03-27.5100S,117-22.7400E,88,33.7451
299,2012/6/29,14:07:00,03-27.5000S,117-22.9400E,88,33.747
300,2012/6/29,14:08:00,03-27.5000S,117-23.1300E,87,33.7441
301,2012/6/29,14:09:00,03-27.4900S,117-23.3300E,86,33.7451
302,2012/6/29,14:10:00,03-27.4700S,117-23.5200E,85,33.747
303,2012/6/29,14:11:00,03-27.4600S,117-23.7100E,85,33.7479
304,2012/6/29,14:12:00,03-27.4400S,117-23.9100E,85,33.7504
305,2012/6/29,14:13:00,03-27.4300S,117-24.1100E,85,33.7545
306,2012/6/29,14:14:00,03-27.4100S,117-24.3000E,85,33.7576
307,2012/6/29,14:15:00,03-27.4000S,117-24.4900E,85,33.7587
308,2012/6/29,14:16:00,03-27.3800S,117-24.6900E,85,33.7612
309,2012/6/29,14:17:00,03-27.3700S,117-24.8800E,87,33.7641
310,2012/6/29,14:18:00,03-27.3600S,117-25.0800E,87,33.7649
311,2012/6/29,14:19:00,03-27.3500S,117-25.2700E,87,33.766
312,2012/6/29,14:20:00,03-27.3400S,117-25.4700E,86,33.7699
313,2012/6/29,14:21:00,03-27.3300S,117-25.6600E,86,33.7778
314,2012/6/29,14:22:00,03-27.3200S,117-25.8600E,85,33.7847
315,2012/6/29,14:23:00,03-27.3000S,117-26.0700E,85,33.7913
316,2012/6/29,14:24:00,03-27.2800S,117-26.2700E,85,33.791
317,2012/6/29,14:25:00,03-27.2700S,117-26.4600E,85,33.7924
318,2012/6/29,14:26:00,03-27.2600S,117-26.6500E,86,33.7941
319,2012/6/29,14:27:00,03-27.2400S,117-26.8500E,86,33.796
320,2012/6/29,14:28:00,03-27.2300S,117-27.0500E,86,33.7989
321,2012/6/29,14:29:00,03-27.2200S,117-27.2400E,87,33.8018
322,2012/6/29,14:30:00,03-27.2100S,117-27.4300E,87,33.8011
323,2012/6/29,14:31:00,03-27.2000S,117-27.6300E,86,33.7952
324,2012/6/29,14:32:00,03-27.1900S,117-27.8200E,86,33.7916
325,2012/6/29,14:33:00,03-27.1800S,117-28.0200E,86,33.7923
326,2012/6/29,14:34:00,03-27.1700S,117-28.2100E,86,33.7941
327,2012/6/29,14:35:00,03-27.1600S,117-28.4100E,86,33.7966
328,2012/6/29,14:36:00,03-27.1400S,117-28.6000E,86,33.7986
329,2012/6/29,14:37:00,03-27.1300S,117-28.8000E,86,33.8005
330,2012/6/29,14:38:00,03-27.1200S,117-28.9900E,85,33.8066
331,2012/6/29,14:39:00,03-27.1100S,117-29.1900E,86,33.8149
332,2012/6/29,14:40:00,03-27.0900S,117-29.3800E,87,33.8156
333,2012/6/29,14:41:00,03-27.0800S,117-29.5700E,86,33.8132
334,2012/6/29,14:42:00,03-27.0700S,117-29.7700E,86,33.8117
335,2012/6/29,14:43:00,03-27.0600S,117-29.9600E,86,33.8119
336,2012/6/29,14:44:00,03-27.0500S,117-30.1600E,87,33.8136
337,2012/6/29,14:45:00,03-27.0400S,117-30.3500E,87,33.8149
338,2012/6/29,14:46:00,03-27.0300S,117-30.5700E,87,33.8154
339,2012/6/29,14:47:00,03-27.0200S,117-30.7600E,87,33.8167
340,2012/6/29,14:48:00,03-27.0100S,117-30.9500E,87,33.817
341,2012/6/29,14:49:00,03-27.0100S,117-31.1400E,87,33.8183
342,2012/6/29,14:50:00,03-27.0000S,117-31.3300E,87,33.8196
343,2012/6/29,14:51:00,03-26.9900S,117-31.5300E,86,33.8217
344,2012/6/29,14:52:00,03-26.9700S,117-31.7200E,85,33.8228
345,2012/6/29,14:53:00,03-26.9600S,117-31.9200E,86,33.8236
346,2012/6/29,14:54:00,03-26.9500S,117-32.1200E,87,33.8233
347,2012/6/29,14:55:00,03-26.9400S,117-32.3100E,86,33.8193
348,2012/6/29,14:56:00,03-26.9300S,117-32.5100E,87,33.8167
349,2012/6/29,14:57:00,03-26.9200S,117-32.7000E,87,33.8142
350,2012/6/29,14:58:00,03-26.9100S,117-32.8900E,87,33.8134
351,2012/6/29,14:59:00,03-26.9000S,117-33.0900E,86,33.817
352,2012/6/29,15:00:00,03-26.8900S,117-33.2900E,86,33.8229
353,2012/6/29,15:01:00,03-26.8800S,117-33.4800E,86,33.8257
354,2012/6/29,15:02:00,03-26.8600S,117-33.6800E,86,33.8323
355,2012/6/29,15:03:00,03-26.8500S,117-33.8700E,86,33.8377
356,2012/6/29,15:04:00,03-26.8400S,117-34.0700E,86,33.8434
357,2012/6/29,15:05:00,03-26.8300S,117-34.2600E,86,33.8484
358,2012/6/29,15:06:00,03-26.8100S,117-34.4600E,85,33.8509
359,2012/6/29,15:07:00,03-26.8000S,117-34.6600E,86,33.8521
360,2012/6/29,15:08:00,03-26.7900S,117-34.8500E,87,33.8553
361,2012/6/29,15:09:00,03-26.7800S,117-35.0600E,87,33.8594
362,2012/6/29,15:10:00,03-26.7700S,117-35.2600E,87,33.8623
363,2012/6/29,15:11:00,03-26.7600S,117-35.4600E,87,33.8642
364,2012/6/29,15:12:00,03-26.7600S,117-35.6500E,87,33.8669
365,2012/6/29,15:13:00,03-26.7500S,117-35.8500E,87,33.8687
366,2012/6/29,15:14:00,03-26.7400S,117-36.0400E,86,33.87
367,2012/6/29,15:15:00,03-26.7300S,117-36.2300E,86,33.8698
368,2012/6/29,15:16:00,03-26.7200S,117-36.4300E,86,33.8713
369,2012/6/29,15:17:00,03-26.7100S,117-36.6300E,86,33.8723
370,2012/6/29,15:18:00,03-26.7000S,117-36.8200E,86,33.875
371,2012/6/29,15:19:00,03-26.6900S,117-37.0200E,87,33.8789
372,2012/6/29,15:20:00,03-26.6800S,117-37.1800E,88,33.881
373,2012/6/29,15:21:00,03-26.6700S,117-37.4100E,88,33.8825
374,2012/6/29,15:22:00,03-26.6700S,117-37.6100E,87,33.8824
375,2012/6/29,15:23:00,03-26.6600S,117-37.8100E,86,33.8829
376,2012/6/29,15:24:00,03-26.6400S,117-38.0000E,85,33.8847
377,2012/6/29,15:25:00,03-26.6300S,117-38.2000E,85,33.8877
378,2012/6/29,15:26:00,03-26.6100S,117-38.3900E,85,33.89
379,2012/6/29,15:27:00,03-26.6000S,117-38.5900E,86,33.8928
380,2012/6/29,15:28:00,03-26.5800S,117-38.7900E,86,33.8938
381,2012/6/29,15:29:00,03-26.5700S,117-38.9800E,86,33.894
382,2012/6/29,15:30:00,03-26.5600S,117-39.1800E,85,33.8962
383,2012/6/29,15:31:00,03-26.5400S,117-39.3800E,85,33.897
384,2012/6/29,15:32:00,03-26.5200S,117-39.5700E,84,33.8999
385,2012/6/29,15:33:00,03-26.5000S,117-39.7700E,85,33.9028
386,2012/6/29,15:34:00,03-26.4900S,117-39.9800E,85,33.9046
387,2012/6/29,15:35:00,03-26.4700S,117-40.1800E,85,33.9033
388,2012/6/29,15:36:00,03-26.4600S,117-40.3700E,85,33.9023
389,2012/6/29,15:37:00,03-26.4400S,117-40.5700E,85,33.9032
390,2012/6/29,15:38:00,03-26.4200S,117-40.7600E,84,33.9034
391,2012/6/29,15:39:00,03-26.4100S,117-40.9600E,85,33.9045
392,2012/6/29,15:40:00,03-26.3900S,117-41.1600E,84,33.9047
393,2012/6/29,15:41:00,03-26.3700S,117-41.3500E,84,33.9075
394,2012/6/29,15:42:00,03-26.3500S,117-41.5500E,85,33.9081
395,2012/6/29,15:43:00,03-26.3400S,117-41.7500E,85,33.9061
396,2012/6/29,15:44:00,03-26.3200S,117-41.9500E,85,33.9048
397,2012/6/29,15:45:00,03-26.3100S,117-42.1400E,85,33.9054
398,2012/6/29,15:46:00,03-26.2900S,117-42.3400E,85,33.9086
399,2012/6/29,15:47:00,03-26.2700S,117-42.5400E,85,33.9127
400,2012/6/29,15:48:00,03-26.2600S,117-42.7400E,85,33.9161
401,2012/6/29,15:49:00,03-26.2400S,117-42.9300E,85,33.9199
402,2012/6/29,15:50:00,03-26.2300S,117-43.1300E,85,33.9252
403,2012/6/29,15:51:00,03-26.2100S,117-43.3300E,85,33.9311
404,2012/6/29,15:52:00,03-26.1900S,117-43.5300E,85,33.9386
405,2012/6/29,15:53:00,03-26.1800S,117-43.7300E,85,33.9449
406,2012/6/29,15:54:00,03-26.1600S,117-43.9200E,85,33.9491
407,2012/6/29,15:55:00,03-26.1500S,117-44.1200E,85,33.9507
408,2012/6/29,15:56:00,03-26.1300S,117-44.3300E,85,33.9514
409,2012/6/29,15:57:00,03-26.1200S,117-44.5300E,85,33.9533
410,2012/6/29,15:58:00,03-26.1000S,117-44.7300E,85,33.9554
411,2012/6/29,15:59:00,03-26.0800S,117-44.9200E,85,33.9579
412,2012/6/29,16:00:00,03-26.0700S,117-45.1200E,85,33.9601
413,2012/6/29,16:01:00,03-26.0500S,117-45.3200E,85,33.9625
414,2012/6/29,16:02:00,03-26.0300S,117-45.5200E,84,33.9657
415,2012/6/29,16:03:00,03-26.0100S,117-45.7200E,86,33.9675
416,2012/6/29,16:04:00,03-26.0100S,117-45.9100E,88,33.9689
417,2012/6/29,16:05:00,03-26.0000S,117-46.1100E,88,33.9699
418,2012/6/29,16:06:00,03-26.0000S,117-46.3100E,88,33.9693
419,2012/6/29,16:07:00,03-25.9900S,117-46.5100E,85,33.9684
420,2012/6/29,16:08:00,03-25.9700S,117-46.7100E,84,33.9694
421,2012/6/29,16:09:00,03-25.9500S,117-46.9000E,83,33.9703
422,2012/6/29,16:10:00,03-25.9300S,117-47.1000E,83,33.9706
423,2012/6/29,16:11:00,03-25.9100S,117-47.3000E,84,33.9702
424,2012/6/29,16:12:00,03-25.8900S,117-47.5000E,85,33.9674
425,2012/6/29,16:13:00,03-25.8700S,117-47.6900E,85,33.9702
426,2012/6/29,16:14:00,03-25.8600S,117-47.8900E,86,33.9723
427,2012/6/29,16:15:00,03-25.8400S,117-48.0900E,85,33.9751
428,2012/6/29,16:16:00,03-25.8300S,117-48.2900E,84,33.9764
429,2012/6/29,16:17:00,03-25.8100S,117-48.4900E,84,33.9764
430,2012/6/29,16:18:00,03-25.7800S,117-48.7000E,84,33.9757
431,2012/6/29,16:19:00,03-25.7600S,117-48.8900E,84,33.9714
432,2012/6/29,16:20:00,03-25.7400S,117-49.1000E,84,33.966
433,2012/6/29,16:21:00,03-25.7200S,117-49.2900E,83,33.9614
434,2012/6/29,16:22:00,03-25.7000S,117-49.4900E,83,33.959
435,2012/6/29,16:23:00,03-25.6800S,117-49.6800E,83,33.9558
436,2012/6/29,16:24:00,03-25.6600S,117-49.8800E,83,33.9496
437,2012/6/29,16:25:00,03-25.6300S,117-50.0800E,84,33.9453
438,2012/6/29,16:26:00,03-25.6200S,117-50.2800E,84,33.9439
439,2012/6/29,16:27:00,03-25.6000S,117-50.4800E,83,33.9461
440,2012/6/29,16:28:00,03-25.5700S,117-50.6700E,83,33.949
441,2012/6/29,16:29:00,03-25.5500S,117-50.8700E,83,33.9508
442,2012/6/29,16:30:00,03-25.5300S,117-51.0700E,83,33.9503
443,2012/6/29,16:31:00,03-25.5000S,117-51.2600E,83,33.9491
444,2012/6/29,16:32:00,03-25.4800S,117-51.4700E,83,33.9479
445,2012/6/29,16:33:00,03-25.4600S,117-51.6600E,82,33.9475
446,2012/6/29,16:34:00,03-25.4300S,117-51.8600E,82,33.9465
447,2012/6/29,16:35:00,03-25.4000S,117-52.0500E,82,33.948
448,2012/6/29,16:36:00,03-25.3800S,117-52.2500E,82,33.9488
449,2012/6/29,16:37:00,03-25.3500S,117-52.4500E,82,33.9495
450,2012/6/29,16:38:00,03-25.3300S,117-52.6500E,82,33.9511
451,2012/6/29,16:39:00,03-25.3000S,117-52.8400E,81,33.9533
452,2012/6/29,16:40:00,03-25.2700S,117-53.0600E,81,33.9544
453,2012/6/29,16:41:00,03-25.2400S,117-53.2500E,81,33.9537
454,2012/6/29,16:42:00,03-25.2100S,117-53.4500E,82,33.9519
455,2012/6/29,16:43:00,03-25.1900S,117-53.6400E,82,33.9473
456,2012/6/29,16:44:00,03-25.1600S,117-53.8400E,82,33.9433
457,2012/6/29,16:45:00,03-25.1400S,117-54.0400E,82,33.9432
458,2012/6/29,16:46:00,03-25.1100S,117-54.2300E,79,33.9484
459,2012/6/29,16:47:00,03-25.0700S,117-54.4300E,78,33.953
460,2012/6/29,16:48:00,03-25.0300S,117-54.6300E,79,33.9523
461,2012/6/29,16:49:00,03-24.9900S,117-54.8200E,79,33.953
462,2012/6/29,16:50:00,03-24.9600S,117-55.0200E,80,33.9562
463,2012/6/29,16:51:00,03-24.9300S,117-55.2100E,80,33.9606
464,2012/6/29,16:52:00,03-24.8900S,117-55.4100E,80,33.9617
465,2012/6/29,16:53:00,03-24.8600S,117-55.6000E,80,33.9609
466,2012/6/29,16:54:00,03-24.8200S,117-55.8000E,79,33.9604
467,2012/6/29,16:55:00,03-24.7800S,117-56.0000E,79,33.9594
468,2012/6/29,16:56:00,03-24.7500S,117-56.1900E,79,33.9584
469,2012/6/29,16:57:00,03-24.7100S,117-56.3900E,79,33.9569
470,2012/6/29,16:58:00,03-24.6700S,117-56.5800E,79,33.9549
471,2012/6/29,16:59:00,03-24.6400S,117-56.7800E,80,33.9547
472,2012/6/29,17:00:00,03-24.6000S,117-56.9700E,80,33.9534
473,2012/6/29,17:01:00,03-24.5700S,117-57.1700E,80,33.9536
474,2012/6/29,17:02:00,03-24.5400S,117-57.3600E,80,33.9528
475,2012/6/29,17:03:00,03-24.5000S,117-57.5600E,79,33.9547
476,2012/6/29,17:04:00,03-24.4700S,117-57.7600E,80,33.9568
477,2012/6/29,17:05:00,03-24.4300S,117-57.9700E,80,33.9595
478,2012/6/29,17:06:00,03-24.4000S,117-58.1600E,80,33.9613
479,2012/6/29,17:07:00,03-24.3600S,117-58.3600E,80,33.9623
480,2012/6/29,17:08:00,03-24.3300S,117-58.5500E,80,33.9625
481,2012/6/29,17:09:00,03-24.2900S,117-58.7500E,79,33.9657
482,2012/6/29,17:10:00,03-24.2600S,117-58.9500E,79,33.9674
483,2012/6/29,17:11:00,03-24.2200S,117-59.1400E,79,33.9711
484,2012/6/29,17:12:00,03-24.1900S,117-59.3400E,80,33.9752
485,2012/6/29,17:13:00,03-24.1500S,117-59.5400E,80,33.9819
486,2012/6/29,17:14:00,03-24.1200S,117-59.7300E,80,33.9849
487,2012/6/29,17:15:00,03-24.0900S,117-59.9300E,80,33.9853
488,2012/6/29,17:16:00,03-24.0500S,118-00.1200E,80,33.9856
489,2012/6/29,17:17:00,03-24.0200S,118-00.3200E,81,33.9854
490,2012/6/29,17:18:00,03-23.9800S,118-00.5200E,77,33.9842
491,2012/6/29,17:19:00,03-23.9400S,118-00.7100E,76,33.9829
492,2012/6/29,17:20:00,03-23.8800S,118-00.9000E,73,33.9807
493,2012/6/29,17:21:00,03-23.8200S,118-01.0800E,70,33.9812
494,2012/6/29,17:22:00,03-23.7500S,118-01.2700E,70,33.981
495,2012/6/29,17:23:00,03-23.6800S,118-01.4500E,70,33.9795
496,2012/6/29,17:24:00,03-23.6200S,118-01.6400E,70,33.9805
497,2012/6/29,17:25:00,03-23.5500S,118-01.8300E,70,33.9801
498,2012/6/29,17:26:00,03-23.4800S,118-02.0100E,70,33.9829
499,2012/6/29,17:27:00,03-23.4100S,118-02.2000E,68,33.9838
500,2012/6/29,17:28:00,03-23.3300S,118-02.4000E,66,33.9829
501,2012/6/29,17:29:00,03-23.2500S,118-02.5700E,65,33.9841
502,2012/6/29,17:30:00,03-23.1600S,118-02.7600E,64,33.9897
503,2012/6/29,17:31:00,03-23.0700S,118-02.9400E,64,33.9934
504,2012/6/29,17:32:00,03-22.9900S,118-03.1100E,64,33.9966
505,2012/6/29,17:33:00,03-22.9000S,118-03.2900E,63,33.9951
506,2012/6/29,17:34:00,03-22.8100S,118-03.4600E,62,33.995
507,2012/6/29,17:35:00,03-22.7100S,118-03.6400E,61,33.9976
508,2012/6/29,17:36:00,03-22.6200S,118-03.8100E,62,33.9987
509,2012/6/29,17:37:00,03-22.5300S,118-03.9900E,62,33.9972
510,2012/6/29,17:38:00,03-22.4400S,118-04.1600E,62,33.9998
511,2012/6/29,17:39:00,03-22.3400S,118-04.3400E,62,33.9992
512,2012/6/29,17:40:00,03-22.2500S,118-04.5200E,64,33.9985
513,2012/6/29,17:41:00,03-22.1700S,118-04.6900E,64,33.9994
514,2012/6/29,17:42:00,03-22.0800S,118-04.8700E,63,33.9992
515,2012/6/29,17:43:00,03-22.0000S,118-05.0400E,62,34.0004
516,2012/6/29,17:44:00,03-21.9000S,118-05.2200E,62,34.0031
517,2012/6/29,17:45:00,03-21.8100S,118-05.3900E,61,34.0051
518,2012/6/29,17:46:00,03-21.7200S,118-05.5700E,61,33.9989
519,2012/6/29,17:47:00,03-21.6300S,118-05.7400E,62,33.9933
520,2012/6/29,17:48:00,03-21.5400S,118-05.9100E,62,33.9912
521,2012/6/29,17:49:00,03-21.4400S,118-06.0900E,62,33.9854
522,2012/6/29,17:50:00,03-21.3600S,118-06.2600E,63,33.9762
523,2012/6/29,17:51:00,03-21.2600S,118-06.4500E,63,33.9733
524,2012/6/29,17:52:00,03-21.1700S,118-06.6200E,62,33.9699
525,2012/6/29,17:53:00,03-21.0800S,118-06.7900E,62,33.969
526,2012/6/29,17:54:00,03-20.9900S,118-06.9700E,61,33.9665
527,2012/6/29,17:55:00,03-20.8900S,118-07.1400E,61,33.9683
528,2012/6/29,17:56:00,03-20.8000S,118-07.3200E,62,33.9705
529,2012/6/29,17:57:00,03-20.7100S,118-07.4800E,62,33.9795
530,2012/6/29,17:58:00,03-20.6200S,118-07.6600E,62,33.9805
531,2012/6/29,17:59:00,03-20.5300S,118-07.8300E,62,33.9831
532,2012/6/29,18:00:00,03-20.4400S,118-08.0100E,62,33.9826
533,2012/6/29,18:01:00,03-20.3500S,118-08.1800E,62,33.9816
534,2012/6/29,18:02:00,03-20.2600S,118-08.3500E,61,33.98
535,2012/6/29,18:03:00,03-20.1700S,118-08.5200E,62,33.9804
536,2012/6/29,18:04:00,03-20.0700S,118-08.7000E,62,33.9807
537,2012/6/29,18:05:00,03-19.9800S,118-08.8700E,62,33.983
538,2012/6/29,18:06:00,03-19.8900S,118-09.0400E,62,33.9891
539,2012/6/29,18:07:00,03-19.8000S,118-09.2200E,63,33.992
540,2012/6/29,18:08:00,03-19.7200S,118-09.4000E,63,33.9926
541,2012/6/29,18:09:00,03-19.6300S,118-09.5700E,62,33.996
542,2012/6/29,18:10:00,03-19.5300S,118-09.7500E,62,33.9987
543,2012/6/29,18:11:00,03-19.4400S,118-09.9200E,61,33.9993
544,2012/6/29,18:12:00,03-19.3500S,118-10.0900E,62,33.9986
545,2012/6/29,18:13:00,03-19.2600S,118-10.2700E,62,34.0012
546,2012/6/29,18:14:00,03-19.1600S,118-10.4500E,62,34.0074
547,2012/6/29,18:15:00,03-19.0700S,118-10.6300E,62,34.0102
548,2012/6/29,18:16:00,03-18.9800S,118-10.8000E,62,34.0144
549,2012/6/29,18:17:00,03-18.9000S,118-10.9800E,63,34.0127
550,2012/6/29,18:18:00,03-18.8100S,118-11.1500E,62,34.0189
551,2012/6/29,18:19:00,03-18.7200S,118-11.3300E,62,34.04
552,2012/6/29,18:20:00,03-18.6300S,118-11.5000E,62,34.0383
553,2012/6/29,18:21:00,03-18.5400S,118-11.6700E,62,34.0494
554,2012/6/29,18:22:00,03-18.4400S,118-11.8500E,61,34.065
555,2012/6/29,18:23:00,03-18.3500S,118-12.0200E,61,34.0641
556,2012/6/29,18:24:00,03-18.2500S,118-12.1900E,61,34.0588
557,2012/6/29,18:25:00,03-18.1600S,118-12.3700E,62,34.0538
558,2012/6/29,18:26:00,03-18.0700S,118-12.5400E,62,34.0542
559,2012/6/29,18:27:00,03-17.9800S,118-12.7100E,62,34.0543
560,2012/6/29,18:28:00,03-17.8800S,118-12.8900E,60,34.0561
561,2012/6/29,18:29:00,03-17.7900S,118-13.0600E,61,34.052
562,2012/6/29,18:30:00,03-17.6900S,118-13.2300E,60,34.0468
563,2012/6/29,18:31:00,03-17.6000S,118-13.4000E,62,34.0403
564,2012/6/29,18:32:00,03-17.5100S,118-13.5800E,63,34.0331
565,2012/6/29,18:33:00,03-17.4200S,118-13.7500E,61,34.0464
566,2012/6/29,18:34:00,03-17.3300S,118-13.9300E,62,34.0447
567,2012/6/29,18:35:00,03-17.2400S,118-14.1000E,62,34.0448
568,2012/6/29,18:36:00,03-17.1500S,118-14.2800E,62,34.043
569,2012/6/29,18:37:00,03-17.0500S,118-14.4600E,62,34.042
570,2012/6/29,18:38:00,03-16.9600S,118-14.6300E,62,34.044
571,2012/6/29,18:39:00,03-16.8700S,118-14.8000E,63,34.0458
572,2012/6/29,18:40:00,03-16.7700S,118-14.9900E,62,34.0483
573,2012/6/29,18:41:00,03-16.6800S,118-15.1700E,61,34.0479
574,2012/6/29,18:42:00,03-16.5900S,118-15.3400E,61,34.0501
575,2012/6/29,18:43:00,03-16.4900S,118-15.5100E,60,34.0502
576,2012/6/29,18:44:00,03-16.4000S,118-15.6800E,62,34.0388
577,2012/6/29,18:45:00,03-16.3200S,118-15.8600E,64,34.0314
578,2012/6/29,18:46:00,03-16.2300S,118-16.0400E,64,34.0281